Starlink 32507

operational
NORAD ID: 62132 Int'l Des: 2024-222 Owner: SPXS Country: US Constellation: starlink
LEOCIRCULAR

Starlink 32507について

説明を読み込み中...

リアルタイム位置

3D地球を読み込み中...

次回通過

高度履歴

Altitude vs Time

uPlot chart will show altitude changes over time

軌道要素

1 62132U 24222U 25352.08643510 .00020312 00000-0 74535-3 0 9995
2 62132 43.0008 236.6262 0001429 260.7692 99.2998 15.27591424 60121
Epoch: Dec 18, 2025 • Age: 19 hours

現在のステータス

高度 482.3 km
速度 7.63 km/s
衛星直下点 9.92°N, 159.33°W
打ち上げ日 Nov 27, 2024
運用期間 1 years
タイプ internet

技術仕様

分類 Payload
質量 730.00 kg
乾燥質量 700.00 kg
総質量 730.00 kg
長さ 0.30 m
直径 4.10 m
スパン 29.00 m
形状 Box + pan
製造者 SPXS
バスタイプ Starlink V2M
フェーズステータス In Orbit
所有者/国 SPXS/US

大規模コンステレーション

Loading constellations...